Flag for Germany Weather past 2 weeks in Ibbenbüren, North Rhine-Westphalia, Germany

Now
37 °F

Clear.


Feels Like: 37 °F
Forecast: 39 / 62 °F
Wind: 2 mph from Northwest

Location: Muenster / Osnabrueck

Current Time: Apr 19, 2015 at 3:30:31 AM

Latest Report: Apr 19, 2015 at 2:50 AM


Visibility: 10 mi

Pressure: 30.24 "Hg

Humidity: 93%

Dew point: 36 °F

Location of IbbenbürenLocation

Historic Weather in Ibbenbüren — Graph

°F

Ibbenbüren temperature yesterday

Maximum temperature yesterday: 57 °F (at 5:20 PM)
Minimum temperature yesterday: 32 °F (at 5:50 AM)
Average temperature yesterday: 46 °F

Past Weeks' High & Low Weather Summary

 TemperatureHumidityPressure
High73 °F (Apr 15, 2:50 PM)100% (Apr 5, 7:50 AM)30.60 "Hg (Apr 5, 7:50 AM)
Low28 °F (Apr 5, 7:20 AM)31% (Apr 12, 7:20 PM)29.92 "Hg (Apr 15, 5:50 PM)
Average49 °F69%30.25 "Hg
* Reported Apr 4 2:20 AM — Apr 19 2:20 AM, Ibbenbüren, Weather by CustomWeather, © 2015

Note: Actual official high and low records may vary slightly from our data, if they occured in-between our weather recording intervals... More about our weather records

Advertising

Ibbenbüren weather history for previous 24 hours

 ConditionsComfort  
Time TempWeatherWind HumidityBarometerVisibility
2:20 AM
Sun, Apr 19
37 °FClear.3 mph93%30.24 "Hg10 mi
1:20 AM39 °FClear.6 mph87%30.27 "Hg10 mi
12:50 AM41 °FClear.6 mph87%30.27 "Hg10 mi
12:20 AM41 °FClear.5 mph87%30.27 "Hg10 mi
11:50 PM
Sat, Apr 18
43 °FClear.7 mph81%30.27 "Hg10 mi
11:20 PM43 °FClear.7 mph81%30.27 "Hg10 mi
10:50 PM45 °FClear.8 mph76%30.27 "Hg10 mi
10:20 PM46 °FClear.5 mph66%30.27 "Hg10 mi
9:50 PM48 °FClear.5 mph62%30.27 "Hg10 mi
9:20 PM50 °FSunny.5 mph54%30.27 "Hg10 mi
8:50 PM48 °FSunny.5 mph54%30.27 "Hg10 mi
8:20 PM52 °FSunny.5 mph44%30.27 "Hg10 mi
7:50 PM54 °FSunny.6 mph41%30.27 "Hg10 mi
7:20 PM55 °FSunny.5 mph36%30.27 "Hg10 mi
6:50 PM57 °FSunny.5 mph31%30.27 "Hg10 mi
6:20 PM57 °FSunny.7 mph31%30.27 "Hg10 mi
5:50 PM55 °FSunny.6 mph33%30.27 "Hg10 mi
5:20 PM57 °FSunny.2 mph33%30.27 "Hg10 mi
4:50 PM55 °FSunny.6 mph38%30.30 "Hg10 mi
4:20 PM55 °FPassing clouds.7 mph33%30.30 "HgN/A
3:50 PM55 °FPassing clouds.6 mph36%30.30 "HgN/A
3:20 PM55 °FPassing clouds.6 mph36%30.33 "HgN/A
2:50 PM55 °FSunny.7 mph36%30.33 "Hg10 mi
2:20 PM55 °FPassing clouds.5 mph36%30.33 "HgN/A
1:50 PM54 °FPassing clouds.6 mph38%30.33 "HgN/A
1:20 PM54 °FSunny.8 mph44%30.33 "Hg10 mi
12:50 PM55 °FPassing clouds.8 mph44%30.36 "HgN/A
12:20 PM54 °FPassing clouds.9 mph47%30.36 "HgN/A
11:50 AM54 °FPassing clouds.12 mph44%30.36 "HgN/A
11:20 AM50 °FPassing clouds.10 mph50%30.36 "HgN/A
10:50 AM50 °FPassing clouds.12 mph58%30.36 "HgN/A
10:20 AM50 °FSunny.10 mph58%30.33 "Hg10 mi
9:50 AM48 °FSunny.7 mph62%30.33 "Hg10 mi
9:20 AM46 °FPassing clouds.5 mph66%30.33 "HgN/A
8:50 AM45 °FSunny.5 mph76%30.33 "Hg10 mi
8:20 AM43 °FSunny.3 mph76%30.33 "Hg10 mi
7:50 AM37 °FSunny.2 mph93%30.33 "Hg10 mi
7:20 AM34 °FClear.2 mph93%30.30 "Hg10 mi
6:50 AM32 °FFog.2 mph100%30.30 "HgN/A
6:20 AM34 °FFog.2 mph93%30.30 "HgN/A
5:50 AM32 °FFog.2 mph93%30.27 "HgN/A
5:20 AM36 °FFog.1 mph87%30.27 "HgN/A
4:50 AM36 °FClear.1 mph93%30.27 "Hg10 mi
4:20 AM36 °FClear.2 mph93%30.27 "Hg10 mi
3:50 AM36 °FClear.3 mph87%30.27 "Hg10 mi
3:20 AM37 °FClear.3 mph87%30.27 "Hg10 mi
Weather by CustomWeather, © 2015

See weather overviewHow to use our weather pages